Location: Larkspur
(54.4391°N, 113.7691°W)
Time: 14:22:14
(UTC+00:00)

Oscar 19 - Pass Details

Date: 02 December 2023
Orbit: 771 x 789 km, 98.9° (Epoch: 01 March)

Event Time Altitude Azimuth Distance (km) Brightness Sun altitude
Rises 13:36:04 0° 12° (NNE) 3,270 13.8 -16.1°
Reaches altitude 10° 13:38:30 10° 5° (N) 2,341 13.0 -15.7°
Maximum altitude 13:43:14 38° 299° (WNW) 1,186 11.1 -15.1°
Drops below altitude 10° 13:47:57 10° 233° (SW) 2,338 12.8 -14.4°
Sets 13:50:23 0° 225° (SW) 3,265 13.6 -14.1°
